When you browse on this site, cookies collect data to enhance your experience and personalize the content and advertising you see.
Visit our Privacy Policy to learn more. By continuing to use the site, you agree to this use of cookies and data.
  • In Hungary
  • List of Countries
  • For 7 days
  • Water Temperature
  • Weather Map
  • News
  • Weather Widgets
  • user-avatar
    Login

    Hourly Weather San Pedro

    Today, 21 November, Thursday

    Time Temperature Precipitation Wind Pressure Humidity
    00:00 +26°C° 0.1 mm 1 mps 708 mmHg 59%
    01:00 +26°C° 0.1 mm 1 mps 708 mmHg 60%
    02:00 +24°C° 0 mm 0 mps 707 mmHg 59%
    03:00 +26°C° 0 mm 1 mps 708 mmHg 59%
    04:00 +26°C° 0 mm 1 mps 708 mmHg 59%
    05:00 +25°C° 0 mm 1 mps 708 mmHg 59%
    06:00 +28°C° 0 mm 1 mps 708 mmHg 51%
    07:00 +31°C° 0 mm 1 mps 709 mmHg 43%
    08:00 +34°C° 0 mm 1 mps 710 mmHg 35%
    09:00 +37°C° 0 mm 2 mps 710 mmHg 31%
    10:00 +39°C° 0 mm 3 mps 710 mmHg 26%
    11:00 +42°C° 0 mm 4 mps 710 mmHg 22%
    12:00 +43°C° 0 mm 4 mps 709 mmHg 21%
    13:00 +43°C° 0 mm 4 mps 709 mmHg 19%
    14:00 +44°C° 0 mm 4 mps 708 mmHg 18%
    15:00 +43°C° 0 mm 4 mps 708 mmHg 19%
    16:00 +43°C° 0 mm 4 mps 707 mmHg 19%
    17:00 +42°C° 0 mm 3 mps 707 mmHg 20%
    18:00 +38°C° 0 mm 3 mps 707 mmHg 25%
    19:00 +35°C° 0 mm 2 mps 707 mmHg 30%
    20:00 +32°C° 0 mm 1 mps 707 mmHg 35%
    21:00 +31°C° 0 mm 1 mps 707 mmHg 37%
    22:00 +30°C° 0 mm 1 mps 707 mmHg 38%
    23:00 +29°C° 0 mm 1 mps 708 mmHg 40%

    Tomorrow, 22 November, Friday

    Time Temperature Precipitation Wind Pressure Humidity
    00:00 +28°C° 0 mm 1 mps 707 mmHg 41%
    01:00 +28°C° 0 mm 1 mps 707 mmHg 43%
    02:00 +27°C° 0 mm 1 mps 706 mmHg 44%
    03:00 +27°C° 0 mm 1 mps 706 mmHg 45%
    04:00 +27°C° 0 mm 1 mps 706 mmHg 46%
    05:00 +26°C° 0 mm 1 mps 706 mmHg 48%
    06:00 +29°C° 0 mm 1 mps 707 mmHg 41%
    07:00 +32°C° 0 mm 1 mps 708 mmHg 35%
    08:00 +35°C° 0 mm 1 mps 709 mmHg 28%
    09:00 +39°C° 0 mm 1 mps 710 mmHg 26%
    10:00 +41°C° 0 mm 2 mps 710 mmHg 23%
    11:00 +43°C° 0 mm 2 mps 710 mmHg 20%
    12:00 +42°C° 0.1 mm 3 mps 710 mmHg 26%
    13:00 +38°C° 0.1 mm 4 mps 709 mmHg 33%
    14:00 +36°C° 0.1 mm 4 mps 708 mmHg 39%
    15:00 +35°C° 0.4 mm 4 mps 708 mmHg 41%
    16:00 +34°C° 0.4 mm 4 mps 708 mmHg 43%
    17:00 +33°C° 0.4 mm 4 mps 708 mmHg 45%
    18:00 +30°C° 0.3 mm 3 mps 708 mmHg 57%
    19:00 +27°C° 0.3 mm 3 mps 709 mmHg 68%
    20:00 +25°C° 0.3 mm 2 mps 709 mmHg 79%
    21:00 +24°C° 0.7 mm 2 mps 710 mmHg 82%
    22:00 +24°C° 0.7 mm 1 mps 711 mmHg 85%
    23:00 +23°C° 0.7 mm 1 mps 711 mmHg 88%

    Day after tomorrow, 23 November, Saturday

    Time Temperature Precipitation Wind Pressure Humidity
    00:00 +23°C° 0.9 mm 1 mps 711 mmHg 89%
    01:00 +21°C° 0.9 mm 0 mps 711 mmHg 89%
    02:00 +21°C° 0.9 mm 0 mps 710 mmHg 90%
    03:00 +23°C° 0.6 mm 1 mps 710 mmHg 90%
    04:00 +23°C° 0.6 mm 1 mps 711 mmHg 91%
    05:00 +23°C° 0.6 mm 1 mps 711 mmHg 91%
    06:00 +24°C° 0.2 mm 1 mps 711 mmHg 87%
    07:00 +25°C° 0.2 mm 1 mps 711 mmHg 83%
    08:00 +24°C° 0.2 mm 0 mps 712 mmHg 78%
    09:00 +28°C° 0 mm 1 mps 712 mmHg 66%
    10:00 +31°C° 0 mm 1 mps 712 mmHg 55%
    11:00 +34°C° 0 mm 1 mps 712 mmHg 43%
    12:00 +36°C° 0.1 mm 2 mps 711 mmHg 41%
    13:00 +36°C° 0.1 mm 2 mps 711 mmHg 39%
    14:00 +37°C° 0.1 mm 3 mps 710 mmHg 38%
    15:00 +36°C° 0.4 mm 3 mps 709 mmHg 41%
    16:00 +36°C° 0.4 mm 2 mps 708 mmHg 44%
    17:00 +35°C° 0.4 mm 2 mps 707 mmHg 47%
    18:00 +32°C° 0.3 mm 2 mps 708 mmHg 54%
    19:00 +30°C° 0.3 mm 2 mps 708 mmHg 61%
    20:00 +28°C° 0.3 mm 1 mps 708 mmHg 68%
    21:00 +27°C° 1.1 mm 1 mps 708 mmHg 72%
    22:00 +27°C° 1.1 mm 1 mps 709 mmHg 77%
    23:00 +26°C° 1.1 mm 1 mps 709 mmHg 82%

    24 November, Sunday

    Time Temperature Precipitation Wind Pressure Humidity
    00:00 +26°C° 0.1 mm 1 mps 708 mmHg 82%
    01:00 +23°C° 0.1 mm 0 mps 707 mmHg 83%
    02:00 +23°C° 0.1 mm 0 mps 707 mmHg 83%
    03:00 +23°C° 0 mm 0 mps 707 mmHg 84%
    04:00 +22°C° 0 mm 0 mps 707 mmHg 84%
    05:00 +22°C° 0 mm 0 mps 707 mmHg 85%
    06:00 +26°C° 0 mm 1 mps 707 mmHg 76%
    07:00 +28°C° 0 mm 1 mps 707 mmHg 67%
    08:00 +31°C° 0 mm 1 mps 707 mmHg 58%
    09:00 +34°C° 0 mm 2 mps 707 mmHg 51%
    10:00 +35°C° 0 mm 3 mps 707 mmHg 45%
    11:00 +37°C° 0 mm 4 mps 707 mmHg 38%
    12:00 +38°C° 0 mm 4 mps 705 mmHg 36%
    13:00 +40°C° 0 mm 4 mps 704 mmHg 33%
    14:00 +41°C° 0 mm 5 mps 703 mmHg 31%
    15:00 +41°C° 0 mm 4 mps 703 mmHg 30%
    16:00 +41°C° 0 mm 4 mps 702 mmHg 29%
    17:00 +41°C° 0 mm 4 mps 701 mmHg 29%
    18:00 +37°C° 0.1 mm 3 mps 701 mmHg 35%
    19:00 +35°C° 0.1 mm 2 mps 702 mmHg 42%
    20:00 +31°C° 0.1 mm 2 mps 702 mmHg 48%
    21:00 +29°C° 0.4 mm 1 mps 702 mmHg 57%
    22:00 +28°C° 0.4 mm 1 mps 702 mmHg 65%
    23:00 +26°C° 0.4 mm 1 mps 702 mmHg 73%

    25 November, Monday

    Time Temperature Precipitation Wind Pressure Humidity
    00:00 +26°C° 0 mm 1 mps 701 mmHg 73%
    01:00 +26°C° 0 mm 1 mps 701 mmHg 73%
    02:00 +25°C° 0 mm 1 mps 700 mmHg 73%
    03:00 +25°C° 0 mm 1 mps 700 mmHg 73%
    04:00 +25°C° 0 mm 1 mps 701 mmHg 73%
    05:00 +25°C° 0 mm 1 mps 701 mmHg 73%
    06:00 +28°C° 0 mm 1 mps 701 mmHg 63%
    07:00 +30°C° 0 mm 1 mps 702 mmHg 54%
    08:00 +33°C° 0 mm 1 mps 703 mmHg 44%
    09:00 +36°C° 0 mm 1 mps 703 mmHg 38%
    10:00 +39°C° 0 mm 1 mps 704 mmHg 32%
    11:00 +42°C° 0 mm 2 mps 704 mmHg 26%
    12:00 +42°C° 0 mm 2 mps 703 mmHg 27%
    13:00 +43°C° 0 mm 3 mps 703 mmHg 28%
    14:00 +43°C° 0 mm 4 mps 703 mmHg 29%
    15:00 +40°C° 0.9 mm 4 mps 702 mmHg 39%
    16:00 +36°C° 0.9 mm 3 mps 701 mmHg 50%
    17:00 +33°C° 0.9 mm 3 mps 700 mmHg 60%
    18:00 +30°C° 1.4 mm 2 mps 701 mmHg 69%
    19:00 +28°C° 1.4 mm 2 mps 702 mmHg 77%
    20:00 +26°C° 1.4 mm 2 mps 703 mmHg 86%
    21:00 +26°C° 0.7 mm 2 mps 704 mmHg 87%
    22:00 +25°C° 0.7 mm 2 mps 704 mmHg 88%
    23:00 +24°C° 0.7 mm 2 mps 705 mmHg 89%

    26 November, Tuesday

    Time Temperature Precipitation Wind Pressure Humidity
    00:00 +24°C° 0.6 mm 2 mps 705 mmHg 90%
    01:00 +24°C° 0.6 mm 2 mps 705 mmHg 91%
    02:00 +24°C° 0.6 mm 1 mps 705 mmHg 93%
    03:00 +24°C° 0.2 mm 2 mps 705 mmHg 92%
    04:00 +23°C° 0.2 mm 2 mps 705 mmHg 92%
    05:00 +23°C° 0.2 mm 2 mps 706 mmHg 92%
    06:00 +23°C° 0.2 mm 2 mps 706 mmHg 90%
    07:00 +23°C° 0.2 mm 2 mps 707 mmHg 88%
    08:00 +23°C° 0.2 mm 2 mps 707 mmHg 86%
    09:00 +24°C° 0.1 mm 2 mps 707 mmHg 79%
    10:00 +25°C° 0.1 mm 2 mps 707 mmHg 73%
    11:00 +26°C° 0.1 mm 3 mps 707 mmHg 66%
    12:00 +26°C° 0.1 mm 2 mps 707 mmHg 62%
    13:00 +27°C° 0.1 mm 2 mps 706 mmHg 59%
    14:00 +27°C° 0.1 mm 2 mps 706 mmHg 55%
    15:00 +26°C° 0.1 mm 2 mps 706 mmHg 61%
    16:00 +25°C° 0.1 mm 2 mps 706 mmHg 67%
    17:00 +23°C° 0.1 mm 1 mps 706 mmHg 73%
    18:00 +23°C° 0.1 mm 1 mps 707 mmHg 75%
    19:00 +22°C° 0.1 mm 1 mps 708 mmHg 77%
    20:00 +22°C° 0.1 mm 1 mps 709 mmHg 78%
    21:00 +21°C° 0.1 mm 1 mps 709 mmHg 78%
    22:00 +21°C° 0.1 mm 1 mps 710 mmHg 79%
    23:00 +21°C° 0.1 mm 1 mps 710 mmHg 79%
    Show more